472  
ASUS45 KGGW 191315  
RWRGGW  
HOURLY REGIONAL WEATHER ROUNDUP FOR NORTHEAST MONTANA  
NATIONAL WEATHER SERVICE GLASGOW MONTANA  
700 AM MDT THU APR 19 2018  
 
NOTE: "FAIR" INDICATES FEW OR NO CLOUDS BELOW 12,000 FEET WITH NO  
SIGNIFICANT WEATHER AND/OR S TO VISISBILITY.  
 
NORTHEAST MONTANA  
 
 
CITY SKY/WX TMP DP RH WIND PRES REMARKS
 
GLASGOW FOG 31 29 92 E17 30.30R VSB 1/4  
PLENTYWOOD N/A 30 30 100 SE3 N/A  
WOLF POINT FOG 33 32 96 E14 30.36R VSB 1/4  
JORDAN N/A 33 30 88 E3 30.26R  
SIDNEY FOG 32 31 96 NE6 30.37S VSB 1/4  
GLENDIVE MIX PCPN 31 30 96 NE8 30.33R VSB<1/4  
MALTA N/A 33 33 100 E7 N/A  
 
FORT PECK REPORTS  
 
 
CITY SKY/WX TMP DP RH WIND PRES REMARKS
 
FORT PECK N/A 30 30 100 NE14 N/A  
THE PINES N/A 30 30 100 NE7 N/A  
 
SOUTHEAST MONTANA  
 
 
CITY SKY/WX TMP DP RH WIND PRES REMARKS
 
BILLINGS MOCLDY 36 27 69 NE7 30.15S  
MILES CITY PTCLDY 32 31 96 NE8 30.27R  
BAKER PTCLDY 29 29 100 SE5 30.31S  
LIVINGSTON CLOUDY 29 25 85 W5 30.12S  
 
CENTRAL MONTANA  
 
 
CITY SKY/WX TMP DP RH WIND PRES REMARKS
 
HAVRE MOCLDY 34 32 92 E14 30.19R  
LEWISTOWN CLOUDY 37 25 61 E12 30.15S  
GREAT FALLS CLOUDY 30 26 85 CALM 30.14S  
CUT BANK MOCLDY 27 25 92 CALM 30.15S  
HELENA PTCLDY 32 23 69 CALM 30.12S  
BUTTE MOCLDY 26 21 81 CALM 30.08F  
BOZEMAN CLOUDY 31 24 75 E5 30.10S  
 
WESTERN MONTANA  
 
 
CITY SKY/WX TMP DP RH WIND PRES REMARKS
 
MISSOULA CLEAR 31 23 72 N3 30.12S  
KALISPELL NOT AVBL  
 
NORTH DAKOTA  
 
 
CITY SKY/WX TMP DP RH WIND PRES REMARKS
 
WILLISTON FOG 34 34 100 NE3 30.38S VSB 1/2  
DICKINSON FOG 27 25 92 E3 30.33S VSB<1/4  
MINOT PTSUNNY 37 34 89 SW3 30.38F FOG  
BISMARCK FOG 30 29 96 CALM 30.42R VSB 1/4  
 
SOUTHERN SASKATCHEWAN  
 
 
CITY SKY/WX TMP DP RH WIND PRES REMARKS
 
REGINA FOG 23 23 100 E7 30.37R VSB 5/8  
MOOSE JAW PTCLDY 32 27 80 S9 30.36R  
ESTEVAN FOG 30 30 100 S5 30.40R VSB 1/8  
SWIFT CURRENT MOCLDY 32 27 80 SE8 30.27S  
 
 
 
CLICK HERE TO GO TO PREVIOUS BULLETINS.

The Nexlab MT Page Main Text Page